| time (UTC) | temp F | wind direction | speed MPH | gust MPH | rain 1hr in | rain 24hr in | rain mn in | humidity % | barometer mb |
| 20260906205310 | 91 | 174 | 2.0 | 4.0 | 0.00 | 0.00 | 0.00 | 42 | 1014.7 |
| 20260906204806 | 90 | 164 | 4.0 | 4.0 | 0.00 | 0.00 | 0.00 | 42 | 1014.5 |
| 20260906204305 | 91 | 190 | 5.0 | 6.0 | 0.00 | 0.00 | 0.00 | 41 | 1014.6 |
| 20260906203804 | 91 | 190 | 6.0 | 7.0 | 0.00 | 0.00 | 0.00 | 41 | 1014.8 |
| 20260906203300 | 90 | 194 | 3.0 | 4.0 | 0.00 | 0.00 | 0.00 | 43 | 1014.8 |
| 20260906202756 | 90 | 177 | 4.0 | 6.0 | 0.00 | 0.00 | 0.00 | 42 | 1014.8 |
| 20260906202256 | 90 | 192 | 4.0 | 6.0 | 0.00 | 0.00 | 0.00 | 43 | 1015.0 |
| 20260906201751 | 90 | 208 | 5.0 | 6.0 | 0.00 | 0.00 | 0.00 | 42 | 1014.9 |
| 20260906201250 | 90 | 199 | 4.0 | 4.0 | 0.00 | 0.00 | 0.00 | 43 | 1015.0 |
| 20260906200746 | 90 | 193 | 3.0 | 3.0 | 0.00 | 0.00 | 0.00 | 44 | 1015.2 |
| 20260906200242 | 90 | 180 | 2.0 | 2.0 | 0.00 | 0.00 | 0.00 | 44 | 1015.3 |
| 20260906195737 | 89 | 175 | 0.0 | 0.0 | 0.00 | 0.00 | 0.00 | 49 | 1015.2 |
| 20260906195233 | 88 | 183 | 2.0 | 2.0 | 0.00 | 0.00 | 0.00 | 47 | 1015.4 |
| 20260906194729 | 89 | 186 | 0.0 | 1.0 | 0.00 | 0.00 | 0.00 | 47 | 1015.5 |
| 20260906194225 | 89 | 226 | 5.0 | 8.0 | 0.00 | 0.00 | 0.00 | 48 | 1015.4 |
| 20260906193720 | 88 | 195 | 2.0 | 3.0 | 0.00 | 0.00 | 0.00 | 48 | 1015.4 |
| 20260906193220 | 87 | 179 | 1.0 | 2.0 | 0.00 | 0.00 | 0.00 | 50 | 1015.4 |
| 20260906192716 | 86 | 197 | 2.0 | 3.0 | 0.00 | 0.00 | 0.00 | 51 | 1015.7 |
| 20260906192210 | 88 | 221 | 3.0 | 4.0 | 0.00 | 0.00 | 0.00 | 49 | 1015.8 |
| 20260906191710 | 87 | 191 | 0.0 | 0.0 | 0.00 | 0.00 | 0.00 | 52 | 1015.7 |
| 20260906191210 | 86 | 177 | 0.0 | 0.0 | 0.00 | 0.00 | 0.00 | 55 | 1016.1 |
| 20260906190705 | 85 | 181 | 0.0 | 0.0 | 0.00 | 0.00 | 0.00 | 54 | 1016.2 |
| 20260906190159 | 86 | 205 | 3.0 | 4.0 | 0.00 | 0.00 | 0.00 | 53 | 1016.2 |
| 20260906185658 | 85 | 265 | 2.0 | 6.0 | 0.00 | 0.00 | 0.00 | 52 | 1016.3 |
| 20260906185157 | 85 | 198 | 2.0 | 2.0 | 0.00 | 0.00 | 0.00 | 53 | 1016.3 |
| 20260906184651 | 85 | 207 | 4.0 | 4.0 | 0.00 | 0.00 | 0.00 | 53 | 1016.5 |
| 20260906184147 | 84 | 182 | 1.0 | 1.0 | 0.00 | 0.00 | 0.00 | 54 | 1016.6 |
| 20260906183643 | 83 | 211 | 3.0 | 3.0 | 0.00 | 0.00 | 0.00 | 56 | 1016.6 |
| 20260906183139 | 83 | 221 | 4.0 | 6.0 | 0.00 | 0.00 | 0.00 | 55 | 1016.8 |
| 20260906182638 | 83 | 184 | 0.0 | 1.0 | 0.00 | 0.00 | 0.00 | 55 | 1016.6 |
| 20260906182135 | 83 | 206 | 2.0 | 3.0 | 0.00 | 0.00 | 0.00 | 55 | 1016.7 |
| 20260906181630 | 82 | 222 | 6.0 | 7.0 | 0.00 | 0.00 | 0.00 | 57 | 1016.8 |
| 20260906181126 | 82 | 197 | 3.0 | 4.0 | 0.00 | 0.00 | 0.00 | 57 | 1017.1 |
| 20260906180621 | 82 | 227 | 4.0 | 6.0 | 0.00 | 0.00 | 0.00 | 57 | 1017.3 |
| 20260906180121 | 82 | 216 | 5.0 | 7.0 | 0.00 | 0.00 | 0.00 | 56 | 1017.2 |
| 20260906175619 | 81 | 189 | 3.0 | 3.0 | 0.00 | 0.00 | 0.00 | 58 | 1017.3 |
| 20260906175114 | 80 | 209 | 5.0 | 6.0 | 0.00 | 0.00 | 0.00 | 58 | 1017.6 |
| 20260906174612 | 80 | 209 | 3.0 | 4.0 | 0.00 | 0.00 | 0.00 | 59 | 1017.5 |
| 20260906174107 | 80 | 174 | 6.0 | 8.0 | 0.00 | 0.00 | 0.00 | 59 | 1017.7 |
| 20260906173602 | 80 | 180 | 4.0 | 6.0 | 0.00 | 0.00 | 0.00 | 62 | 1017.6 |
| 20260906173058 | 81 | 234 | 6.0 | 9.0 | 0.00 | 0.00 | 0.00 | 59 | 1017.7 |
| 20260906172558 | 80 | 199 | 3.0 | 3.0 | 0.00 | 0.00 | 0.00 | 60 | 1017.8 |
| 20260906172054 | 80 | 197 | 6.0 | 8.0 | 0.00 | 0.00 | 0.00 | 60 | 1017.8 |
| 20260906171553 | 80 | 249 | 6.0 | 7.0 | 0.00 | 0.00 | 0.00 | 60 | 1018.1 |
| 20260906171049 | 79 | 194 | 4.0 | 6.0 | 0.00 | 0.00 | 0.00 | 62 | 1018.1 |
| 20260906170544 | 79 | 173 | 2.0 | 3.0 | 0.00 | 0.00 | 0.00 | 63 | 1018.1 |
| 20260906170043 | 79 | 207 | 5.0 | 6.0 | 0.00 | 0.00 | 0.00 | 63 | 1018.2 |
| 20260906165540 | 78 | 184 | 6.0 | 7.0 | 0.00 | 0.00 | 0.00 | 63 | 1018.0 |
| 20260906165035 | 79 | 188 | 4.0 | 6.0 | 0.00 | 0.00 | 0.00 | 63 | 1018.3 |
| 20260906164534 | 78 | 170 | 1.0 | 2.0 | 0.00 | 0.00 | 0.00 | 66 | 1018.2 |
| 20260906164031 | 78 | 159 | 3.0 | 4.0 | 0.00 | 0.00 | 0.00 | 65 | 1018.4 |
| 20260906163526 | 78 | 171 | 0.0 | 0.0 | 0.00 | 0.00 | 0.00 | 67 | 1018.1 |
| 20260906163021 | 77 | 172 | 0.0 | 1.0 | 0.00 | 0.00 | 0.00 | 68 | 1018.4 |
| 20260906162518 | 75 | 168 | 1.0 | 1.0 | 0.00 | 0.00 | 0.00 | 71 | 1018.4 |
| 20260906162013 | 75 | 200 | 2.0 | 2.0 | 0.00 | 0.00 | 0.00 | 70 | 1018.5 |
| 20260906161508 | 74 | 191 | 2.0 | 2.0 | 0.00 | 0.00 | 0.00 | 71 | 1018.4 |
| 20260906161007 | 75 | 203 | 3.0 | 3.0 | 0.00 | 0.00 | 0.00 | 70 | 1018.4 |
| 20260906160507 | 73 | 170 | 0.0 | 0.0 | 0.00 | 0.00 | 0.00 | 74 | 1018.5 |
| 20260906160005 | 74 | 179 | 1.0 | 2.0 | 0.00 | 0.00 | 0.00 | 72 | 1018.5 |
| 20260906155503 | 73 | 175 | 0.0 | 0.0 | 0.00 | 0.00 | 0.00 | 74 | 1018.6 |
| 20260906154959 | 71 | 173 | 0.0 | 0.0 | 0.00 | 0.00 | 0.00 | 77 | 1018.6 |
| 20260906154455 | 71 | 148 | 1.0 | 1.0 | 0.00 | 0.00 | 0.00 | 77 | 1018.5 |
| 20260906153953 | 71 | 167 | 0.0 | 0.0 | 0.00 | 0.00 | 0.00 | 76 | 1018.5 |
| 20260906153452 | 72 | 175 | 0.0 | 0.0 | 0.00 | 0.00 | 0.00 | 75 | 1018.5 |
| 20260906152947 | 71 | 168 | 0.0 | 0.0 | 0.00 | 0.00 | 0.00 | 76 | 1018.5 |
| 20260906152447 | 71 | 175 | 0.0 | 1.0 | 0.00 | 0.00 | 0.00 | 78 | 1018.5 |
| 20260906151947 | 70 | 129 | 0.0 | 1.0 | 0.00 | 0.00 | 0.00 | 79 | 1018.9 |
| 20260906151442 | 69 | 103 | 1.0 | 2.0 | 0.00 | 0.00 | 0.00 | 80 | 1018.7 |
| 20260906150938 | 69 | 138 | 1.0 | 2.0 | 0.00 | 0.00 | 0.00 | 80 | 1019.0 |
| 20260906150433 | 69 | 136 | 2.0 | 2.0 | 0.00 | 0.00 | 0.00 | 81 | 1019.0 |
| 20260906145932 | 69 | 164 | 0.0 | 0.0 | 0.00 | 0.00 | 0.00 | 81 | 1018.7 |
| 20260906145432 | 68 | 165 | 0.0 | 1.0 | 0.00 | 0.00 | 0.00 | 82 | 1018.7 |
| 20260906144927 | 69 | 168 | 1.0 | 1.0 | 0.00 | 0.00 | 0.00 | 82 | 1019.0 |
| 20260906144427 | 69 | 81 | 3.0 | 3.0 | 0.00 | 0.00 | 0.00 | 81 | 1018.9 |
| 20260906143923 | 68 | 142 | 1.0 | 1.0 | 0.00 | 0.00 | 0.00 | 81 | 1018.9 |
| 20260906143418 | 68 | 157 | 0.0 | 0.0 | 0.00 | 0.00 | 0.00 | 83 | 1019.0 |
| 20260906142914 | 67 | 169 | 0.0 | 1.0 | 0.00 | 0.00 | 0.00 | 83 | 1018.7 |
| 20260906142413 | 67 | 172 | 0.0 | 0.0 | 0.00 | 0.00 | 0.00 | 84 | 1018.9 |
| 20260906141908 | 66 | 173 | 0.0 | 0.0 | 0.00 | 0.00 | 0.00 | 84 | 1018.6 |
| 20260906141408 | 66 | 163 | 0.0 | 0.0 | 0.00 | 0.00 | 0.00 | 84 | 1018.5 |
| 20260906140903 | 66 | 167 | 0.0 | 0.0 | 0.00 | 0.00 | 0.00 | 87 | 1018.7 |
| 20260906140357 | 65 | 166 | 0.0 | 0.0 | 0.00 | 0.00 | 0.00 | 87 | 1018.9 |
| 20260906135855 | 65 | 125 | 2.0 | 2.0 | 0.00 | 0.00 | 0.00 | 87 | 1019.2 |
| 20260906135354 | 65 | 163 | 1.0 | 2.0 | 0.00 | 0.00 | 0.00 | 86 | 1019.0 |
| 20260906134850 | 65 | 161 | 1.0 | 1.0 | 0.00 | 0.00 | 0.00 | 86 | 1019.3 |
| 20260906134345 | 65 | 161 | 0.0 | 0.0 | 0.00 | 0.00 | 0.00 | 87 | 1019.0 |
| 20260906133841 | 65 | 145 | 1.0 | 2.0 | 0.00 | 0.00 | 0.00 | 87 | 1019.0 |
| 20260906133336 | 65 | 163 | 0.0 | 0.0 | 0.00 | 0.00 | 0.00 | 87 | 1018.6 |
| 20260906132831 | 65 | 163 | 0.0 | 0.0 | 0.00 | 0.00 | 0.00 | 88 | 1018.7 |
| 20260906132326 | 64 | 163 | 0.0 | 0.0 | 0.00 | 0.00 | 0.00 | 89 | 1018.5 |
| 20260906131822 | 64 | 162 | 0.0 | 0.0 | 0.00 | 0.00 | 0.00 | 89 | 1018.3 |
| 20260906131317 | 64 | 162 | 0.0 | 0.0 | 0.00 | 0.00 | 0.00 | 89 | 1018.5 |
| 20260906130813 | 64 | 162 | 0.0 | 0.0 | 0.00 | 0.00 | 0.00 | 89 | 1018.6 |
| 20260906130313 | 63 | 158 | 0.0 | 0.0 | 0.00 | 0.00 | 0.00 | 89 | 1018.5 |
| 20260906125812 | 63 | 160 | 0.0 | 1.0 | 0.00 | 0.00 | 0.00 | 89 | 1018.4 |
| 20260906125310 | 63 | 158 | 1.0 | 1.0 | 0.00 | 0.00 | 0.00 | 90 | 1018.4 |
| 20260906124810 | 63 | 159 | 0.0 | 1.0 | 0.00 | 0.00 | 0.00 | 90 | 1018.3 |
| 20260906124306 | 63 | 160 | 0.0 | 0.0 | 0.00 | 0.00 | 0.00 | 90 | 1018.0 |
| 20260906123805 | 63 | 178 | 0.0 | 0.0 | 0.00 | 0.00 | 0.00 | 89 | 1018.2 |
| 20260906123300 | 63 | 161 | 0.0 | 0.0 | 0.00 | 0.00 | 0.00 | 89 | 1018.2 |
| 20260906122759 | 63 | 169 | 0.0 | 0.0 | 0.00 | 0.00 | 0.00 | 89 | 1017.8 |
| 20260906122255 | 63 | 164 | 0.0 | 1.0 | 0.00 | 0.00 | 0.00 | 88 | 1018.0 |
| 20260906121752 | 63 | 178 | 0.0 | 0.0 | 0.00 | 0.00 | 0.00 | 88 | 1017.8 |
| 20260906121247 | 63 | 155 | 1.0 | 1.0 | 0.00 | 0.00 | 0.00 | 87 | 1017.7 |
| 20260906120743 | 64 | 164 | 0.0 | 0.0 | 0.00 | 0.00 | 0.00 | 86 | 1017.7 |
| 20260906120240 | 64 | 181 | 0.0 | 0.0 | 0.00 | 0.00 | 0.00 | 86 | 1017.7 |
| 20260906115735 | 64 | 181 | 0.0 | 0.0 | 0.00 | 0.00 | 0.00 | 85 | 1017.6 |
| 20260906115230 | 64 | 181 | 0.0 | 0.0 | 0.00 | 0.00 | 0.00 | 85 | 1017.7 |
| 20260906114729 | 64 | 181 | 0.0 | 0.0 | 0.00 | 0.00 | 0.00 | 85 | 1017.8 |
| 20260906114224 | 64 | 183 | 0.0 | 0.0 | 0.00 | 0.00 | 0.00 | 84 | 1018.0 |
| 20260906113720 | 65 | 184 | 0.0 | 0.0 | 0.00 | 0.00 | 0.00 | 83 | 1017.8 |
| 20260906113219 | 65 | 177 | 0.0 | 0.0 | 0.00 | 0.00 | 0.00 | 82 | 1017.7 |
| 20260906112718 | 65 | 177 | 0.0 | 0.0 | 0.00 | 0.00 | 0.00 | 81 | 1017.7 |
| 20260906112216 | 65 | 177 | 0.0 | 0.0 | 0.00 | 0.00 | 0.00 | 82 | 1017.8 |
| 20260906111715 | 65 | 178 | 0.0 | 0.0 | 0.00 | 0.00 | 0.00 | 81 | 1017.6 |
| 20260906111209 | 65 | 176 | 0.0 | 0.0 | 0.00 | 0.00 | 0.00 | 81 | 1017.5 |
| 20260906110705 | 66 | 176 | 0.0 | 0.0 | 0.00 | 0.00 | 0.00 | 80 | 1017.7 |
| 20260906110200 | 66 | 177 | 0.0 | 0.0 | 0.00 | 0.00 | 0.00 | 79 | 1017.7 |
| 20260906105700 | 66 | 177 | 0.0 | 0.0 | 0.00 | 0.00 | 0.00 | 79 | 1017.5 |
| 20260906105156 | 66 | 174 | 0.0 | 0.0 | 0.00 | 0.00 | 0.00 | 78 | 1017.7 |
| 20260906104655 | 66 | 170 | 0.0 | 0.0 | 0.00 | 0.00 | 0.00 | 78 | 1017.4 |
| 20260906104154 | 65 | 169 | 0.0 | 0.0 | 0.00 | 0.00 | 0.00 | 78 | 1017.7 |
| 20260906103652 | 65 | 134 | 1.0 | 2.0 | 0.00 | 0.00 | 0.00 | 79 | 1017.8 |
| 20260906103148 | 66 | 105 | 2.0 | 2.0 | 0.00 | 0.00 | 0.00 | 78 | 1017.8 |
| 20260906102643 | 65 | 158 | 2.0 | 3.0 | 0.00 | 0.00 | 0.00 | 79 | 1017.6 |
| 20260906102143 | 65 | 187 | 1.0 | 1.0 | 0.00 | 0.00 | 0.00 | 80 | 1017.6 |
| 20260906101643 | 66 | 181 | 0.0 | 0.0 | 0.00 | 0.00 | 0.00 | 80 | 1017.7 |
| 20260906101143 | 66 | 171 | 0.0 | 0.0 | 0.00 | 0.00 | 0.00 | 79 | 1017.3 |
| 20260906100639 | 66 | 169 | 1.0 | 1.0 | 0.00 | 0.00 | 0.00 | 78 | 1017.2 |
| 20260906100133 | 66 | 165 | 0.0 | 1.0 | 0.00 | 0.00 | 0.00 | 78 | 1017.0 |
| 20260906095628 | 66 | 171 | 1.0 | 2.0 | 0.00 | 0.00 | 0.00 | 78 | 1016.8 |
| 20260906095123 | 66 | 170 | 1.0 | 2.0 | 0.00 | 0.00 | 0.00 | 76 | 1016.7 |
| 20260906094622 | 66 | 169 | 2.0 | 2.0 | 0.00 | 0.00 | 0.00 | 76 | 1017.0 |
| 20260906094118 | 66 | 168 | 0.0 | 1.0 | 0.00 | 0.00 | 0.00 | 75 | 1016.8 |
| 20260906093615 | 66 | 164 | 0.0 | 0.0 | 0.00 | 0.00 | 0.00 | 76 | 1016.6 |
| 20260906093114 | 66 | 172 | 0.0 | 0.0 | 0.00 | 0.00 | 0.00 | 77 | 1016.6 |
| 20260906092609 | 66 | 171 | 2.0 | 2.0 | 0.00 | 0.00 | 0.00 | 77 | 1016.8 |
| 20260906092104 | 66 | 168 | 0.0 | 1.0 | 0.00 | 0.00 | 0.00 | 76 | 1016.8 |
| 20260906091600 | 66 | 162 | 0.0 | 0.0 | 0.00 | 0.00 | 0.00 | 77 | 1016.5 |
| 20260906091057 | 66 | 155 | 0.0 | 0.0 | 0.00 | 0.00 | 0.00 | 77 | 1016.7 |
| 20260906090556 | 65 | 169 | 0.0 | 0.0 | 0.00 | 0.00 | 0.00 | 79 | 1016.7 |
| 20260906090057 | 65 | 165 | 0.0 | 1.0 | 0.00 | 0.00 | 0.00 | 81 | 1016.6 |
| 20260906085556 | 65 | 166 | 0.0 | 0.0 | 0.00 | 0.00 | 0.00 | 81 | 1016.7 |
| 20260906085050 | 64 | 162 | 0.0 | 0.0 | 0.00 | 0.00 | 0.00 | 82 | 1016.7 |
| 20260906084545 | 64 | 149 | 0.0 | 0.0 | 0.00 | 0.00 | 0.00 | 83 | 1016.6 |
| 20260906084043 | 64 | 167 | 0.0 | 1.0 | 0.00 | 0.00 | 0.00 | 82 | 1017.2 |
| 20260906083539 | 65 | 161 | 0.0 | 1.0 | 0.00 | 0.00 | 0.00 | 82 | 1017.2 |
| 20260906083039 | 65 | 155 | 1.0 | 2.0 | 0.00 | 0.00 | 0.00 | 82 | 1017.6 |
| 20260906082534 | 65 | 167 | 0.0 | 0.0 | 0.00 | 0.00 | 0.00 | 81 | 1017.5 |
| 20260906082030 | 66 | 140 | 4.0 | 4.0 | 0.00 | 0.00 | 0.00 | 80 | 1017.7 |
| 20260906081526 | 66 | 138 | 2.0 | 3.0 | 0.00 | 0.00 | 0.00 | 78 | 1017.5 |
| 20260906081021 | 67 | 18 | 2.0 | 4.0 | 0.00 | 0.00 | 0.00 | 75 | 1017.5 |
| 20260906080518 | 66 | 154 | 2.0 | 2.0 | 0.00 | 0.00 | 0.00 | 75 | 1017.2 |
| 20260906080014 | 66 | 167 | 0.0 | 0.0 | 0.00 | 0.00 | 0.00 | 76 | 1017.2 |
| 20260906075513 | 66 | 168 | 0.0 | 0.0 | 0.00 | 0.00 | 0.00 | 77 | 1017.3 |
| 20260906075008 | 66 | 167 | 0.0 | 0.0 | 0.00 | 0.00 | 0.00 | 80 | 1017.3 |
| 20260906074503 | 66 | 166 | 0.0 | 0.0 | 0.00 | 0.00 | 0.00 | 80 | 1017.3 |
| 20260906074001 | 66 | 166 | 0.0 | 0.0 | 0.00 | 0.00 | 0.00 | 80 | 1017.2 |
| 20260906073456 | 66 | 175 | 1.0 | 1.0 | 0.00 | 0.00 | 0.00 | 80 | 1017.3 |
| 20260906072953 | 66 | 178 | 0.0 | 1.0 | 0.00 | 0.00 | 0.00 | 80 | 1017.2 |
| 20260906072447 | 66 | 162 | 1.0 | 1.0 | 0.00 | 0.00 | 0.00 | 81 | 1017.1 |
| 20260906071943 | 66 | 165 | 1.0 | 2.0 | 0.00 | 0.00 | 0.00 | 81 | 1017.1 |
| 20260906071439 | 66 | 160 | 0.0 | 1.0 | 0.00 | 0.00 | 0.00 | 81 | 1017.0 |
| 20260906070935 | 66 | 165 | 0.0 | 0.0 | 0.00 | 0.00 | 0.00 | 82 | 1017.0 |
| 20260906070431 | 66 | 169 | 2.0 | 2.0 | 0.00 | 0.00 | 0.00 | 81 | 1017.1 |
| 20260906065926 | 66 | 144 | 1.0 | 1.0 | 0.00 | 0.00 | 0.00 | 81 | 1017.0 |
| 20260906065421 | 66 | 154 | 2.0 | 3.0 | 0.00 | 0.00 | 0.00 | 82 | 1017.0 |
| 20260906064916 | 66 | 115 | 3.0 | 3.0 | 0.00 | 0.00 | 0.00 | 84 | 1017.1 |
| 20260906064413 | 65 | 185 | 3.0 | 4.0 | 0.00 | 0.00 | 0.00 | 84 | 1016.7 |
| 20260906063913 | 65 | 139 | 2.0 | 6.0 | 0.00 | 0.00 | 0.00 | 85 | 1017.0 |
| 20260906063408 | 65 | 172 | 1.0 | 1.0 | 0.00 | 0.00 | 0.00 | 85 | 1017.3 |
| 20260906062902 | 65 | 164 | 5.0 | 8.0 | 0.00 | 0.00 | 0.00 | 85 | 1017.5 |
| 20260906062402 | 65 | 172 | 1.0 | 1.0 | 0.00 | 0.00 | 0.00 | 86 | 1017.5 |
| 20260906061857 | 65 | 153 | 0.0 | 0.0 | 0.00 | 0.00 | 0.00 | 87 | 1017.7 |
| 20260906061354 | 65 | 157 | 2.0 | 4.0 | 0.00 | 0.00 | 0.00 | 88 | 1018.1 |
| 20260906060848 | 66 | 101 | 6.0 | 9.0 | 0.00 | 0.00 | 0.00 | 88 | 1018.2 |
| 20260906060346 | 66 | 169 | 1.0 | 2.0 | 0.00 | 0.00 | 0.00 | 89 | 1018.2 |
| 20260906055842 | 66 | 85 | 4.0 | 9.0 | 0.00 | 0.54 | 0.54 | 88 | 1018.1 |
| 20260906055337 | 66 | 146 | 2.0 | 3.0 | 0.00 | 0.54 | 0.54 | 89 | 1018.0 |
| 20260906054832 | 66 | 158 | 0.0 | 1.0 | 0.00 | 0.54 | 0.54 | 90 | 1018.0 |
| 20260906054327 | 66 | 145 | 1.0 | 1.0 | 0.00 | 0.54 | 0.54 | 91 | 1017.6 |
| 20260906053824 | 66 | 161 | 1.0 | 2.0 | 0.00 | 0.54 | 0.54 | 91 | 1018.0 |
| 20260906053319 | 65 | 139 | 0.0 | 1.0 | 0.00 | 0.54 | 0.54 | 91 | 1017.6 |
| 20260906052814 | 65 | 167 | 1.0 | 1.0 | 0.00 | 0.54 | 0.54 | 91 | 1017.8 |
| 20260906052311 | 66 | 156 | 1.0 | 1.0 | 0.00 | 0.54 | 0.54 | 91 | 1018.0 |
| 20260906051808 | 65 | 183 | 2.0 | 3.0 | 0.00 | 0.54 | 0.54 | 91 | 1018.1 |
| 20260906051306 | 65 | 157 | 1.0 | 1.0 | 0.00 | 0.54 | 0.54 | 92 | 1017.7 |
| 20260906050802 | 65 | 82 | 1.0 | 2.0 | 0.00 | 0.54 | 0.54 | 92 | 1017.6 |
| 20260906050257 | 65 | 46 | 2.0 | 3.0 | 0.00 | 0.54 | 0.54 | 93 | 1018.0 |
| 20260906045756 | 65 | 153 | 0.0 | 0.0 | 0.00 | 0.54 | 0.54 | 93 | 1017.8 |
| 20260906045250 | 65 | 95 | 3.0 | 4.0 | 0.00 | 0.54 | 0.54 | 93 | 1017.7 |
| 20260906044747 | 66 | 166 | 1.0 | 2.0 | 0.00 | 0.54 | 0.54 | 93 | 1018.3 |
| 20260906044242 | 66 | 180 | 1.0 | 1.0 | 0.00 | 0.54 | 0.54 | 93 | 1018.3 |
| 20260906043738 | 66 | 1 | 3.0 | 7.0 | 0.00 | 0.54 | 0.54 | 93 | 1018.1 |
| 20260906043233 | 66 | 94 | 2.0 | 3.0 | 0.00 | 0.54 | 0.54 | 92 | 1017.8 |
| 20260906042733 | 66 | 132 | 4.0 | 6.0 | 0.00 | 0.54 | 0.54 | 91 | 1017.7 |
| 20260906042232 | 66 | 137 | 2.0 | 6.0 | 0.12 | 0.54 | 0.54 | 90 | 1017.6 |
| 20260906041727 | 68 | 102 | 3.0 | 3.0 | 0.12 | 0.54 | 0.54 | 88 | 1017.4 |
| 20260906041223 | 68 | 45 | 10.0 | 13.0 | 0.00 | 0.52 | 0.52 | 84 | 1018.1 |
| 20260906040719 | 69 | 176 | 3.0 | 6.0 | 0.00 | 0.52 | 0.52 | 83 | 1018.0 |
| 20260906040214 | 69 | 166 | 0.0 | 0.0 | 0.00 | 0.52 | 0.52 | 81 | 1017.7 |
| 20260906035709 | 69 | 153 | 1.0 | 2.0 | 0.00 | 0.52 | 0.52 | 81 | 1017.7 |
| 20260906035205 | 68 | 167 | 0.0 | 1.0 | 0.00 | 0.52 | 0.52 | 82 | 1017.7 |
| 20260906034704 | 68 | 26 | 5.0 | 7.0 | 0.00 | 0.52 | 0.52 | 80 | 1017.5 |
| 20260906034159 | 69 | 175 | 6.0 | 7.0 | 0.00 | 0.52 | 0.52 | 79 | 1017.4 |
| 20260906033655 | 70 | 137 | 3.0 | 4.0 | 0.00 | 0.52 | 0.52 | 75 | 1017.4 |
| 20260906033156 | 73 | 67 | 5.0 | 8.0 | 0.00 | 0.52 | 0.52 | 70 | 1016.8 |
| 20260906032652 | 78 | 350 | 6.0 | 7.0 | 0.00 | 0.52 | 0.52 | 58 | 1016.3 |
| 20260906032146 | 78 | 11 | 11.0 | 14.0 | 0.00 | 0.52 | 0.52 | 58 | 1016.5 |
| 20260906031642 | 75 | 63 | 5.0 | 7.0 | 0.00 | 0.52 | 0.52 | 62 | 1016.5 |
| 20260906031137 | 77 | 14 | 7.0 | 9.0 | 0.00 | 0.52 | 0.52 | 64 | 1016.4 |
| 20260906030636 | 77 | 313 | 3.0 | 3.0 | 0.00 | 0.52 | 0.52 | 63 | 1015.9 |
| 20260906030132 | 77 | 166 | 0.0 | 0.0 | 0.00 | 0.52 | 0.52 | 63 | 1015.0 |
| 20260906025631 | 78 | 170 | 0.0 | 0.0 | 0.00 | 0.52 | 0.52 | 62 | 1014.8 |
| 20260906025130 | 78 | 177 | 0.0 | 0.0 | 0.00 | 0.52 | 0.52 | 62 | 1014.4 |
| 20260906024625 | 78 | 165 | 0.0 | 0.0 | 0.00 | 0.52 | 0.52 | 61 | 1014.4 |
| 20260906024119 | 78 | 170 | 0.0 | 1.0 | 0.00 | 0.52 | 0.52 | 62 | 1014.0 |
| 20260906023615 | 77 | 156 | 1.0 | 2.0 | 0.00 | 0.52 | 0.52 | 62 | 1013.8 |
| 20260906023109 | 77 | 156 | 2.0 | 6.0 | 0.00 | 0.52 | 0.52 | 64 | 1013.8 |
| 20260906022605 | 76 | 163 | 0.0 | 1.0 | 0.00 | 0.52 | 0.52 | 67 | 1014.3 |
| 20260906022100 | 76 | 155 | 0.0 | 1.0 | 0.00 | 0.52 | 0.52 | 66 | 1014.1 |
| 20260906021556 | 77 | 168 | 1.0 | 2.0 | 0.00 | 0.52 | 0.52 | 66 | 1014.1 |
| 20260906021055 | 77 | 158 | 0.0 | 1.0 | 0.00 | 0.52 | 0.52 | 66 | 1014.3 |
| 20260906020554 | 77 | 157 | 0.0 | 1.0 | 0.00 | 0.52 | 0.52 | 64 | 1014.1 |
| 20260906020054 | 77 | 152 | 1.0 | 1.0 | 0.00 | 0.52 | 0.52 | 64 | 1014.1 |
| 20260906015554 | 76 | 165 | 1.0 | 3.0 | 0.00 | 0.52 | 0.52 | 65 | 1014.0 |
| 20260906015053 | 76 | 154 | 1.0 | 2.0 | 0.00 | 0.52 | 0.52 | 67 | 1014.1 |
| 20260906014548 | 76 | 170 | 0.0 | 1.0 | 0.00 | 0.52 | 0.52 | 67 | 1013.9 |
| 20260906014044 | 76 | 158 | 0.0 | 0.0 | 0.00 | 0.52 | 0.52 | 67 | 1013.9 |
| 20260906013539 | 76 | 169 | 0.0 | 0.0 | 0.00 | 0.52 | 0.52 | 66 | 1013.8 |
| 20260906013035 | 76 | 151 | 1.0 | 1.0 | 0.00 | 0.52 | 0.52 | 64 | 1013.8 |
| 20260906012530 | 76 | 161 | 1.0 | 2.0 | 0.00 | 0.52 | 0.52 | 65 | 1013.9 |
| 20260906012029 | 76 | 166 | 0.0 | 0.0 | 0.00 | 0.52 | 0.52 | 66 | 1013.8 |
| 20260906011525 | 75 | 167 | 1.0 | 1.0 | 0.00 | 0.52 | 0.52 | 67 | 1014.0 |
| 20260906011025 | 75 | 167 | 0.0 | 0.0 | 0.00 | 0.52 | 0.52 | 67 | 1014.0 |
| 20260906010520 | 74 | 171 | 0.0 | 0.0 | 0.00 | 0.52 | 0.52 | 69 | 1014.3 |
| 20260906010017 | 74 | 166 | 1.0 | 1.0 | 0.00 | 0.52 | 0.52 | 69 | 1014.3 |
| 20260906005516 | 74 | 180 | 0.0 | 0.0 | 0.00 | 0.52 | 0.52 | 70 | 1014.5 |
| 20260906005015 | 74 | 169 | 1.0 | 1.0 | 0.00 | 0.52 | 0.52 | 71 | 1014.7 |
| 20260906004514 | 74 | 146 | 2.0 | 2.0 | 0.00 | 0.52 | 0.52 | 72 | 1014.6 |
| 20260906004010 | 74 | 166 | 0.0 | 0.0 | 0.00 | 0.52 | 0.52 | 72 | 1014.7 |
| 20260906003505 | 74 | 171 | 0.0 | 0.0 | 0.00 | 0.52 | 0.52 | 72 | 1014.7 |
| 20260906003001 | 74 | 162 | 0.0 | 1.0 | 0.00 | 0.52 | 0.52 | 71 | 1014.8 |
| 20260906002501 | 73 | 134 | 1.0 | 1.0 | 0.00 | 0.52 | 0.52 | 74 | 1014.9 |
| 20260906001956 | 73 | 168 | 1.0 | 2.0 | 0.00 | 0.52 | 0.52 | 74 | 1014.8 |
| 20260906001452 | 72 | 155 | 1.0 | 2.0 | 0.00 | 0.52 | 0.52 | 76 | 1014.8 |
| 20260906000946 | 73 | 120 | 4.0 | 8.0 | 0.00 | 0.52 | 0.52 | 73 | 1014.8 |
| 20260906000441 | 73 | 135 | 2.0 | 2.0 | 0.00 | 0.52 | 0.52 | 76 | 1014.8 |
| 20260905235936 | 74 | 179 | 1.0 | 2.0 | 0.00 | 0.52 | 0.52 | 76 | 1014.8 |
| 20260905235436 | 75 | 157 | 2.0 | 3.0 | 0.00 | 0.52 | 0.52 | 75 | 1014.8 |
| 20260905234931 | 76 | 147 | 2.0 | 3.0 | 0.00 | 0.52 | 0.52 | 72 | 1014.5 |
| 20260905234427 | 76 | 158 | 2.0 | 4.0 | 0.00 | 0.52 | 0.52 | 72 | 1014.6 |
| 20260905233926 | 74 | 161 | 1.0 | 1.0 | 0.00 | 0.52 | 0.52 | 73 | 1014.8 |
| 20260905233422 | 69 | 154 | 0.0 | 1.0 | 0.00 | 0.52 | 0.52 | 87 | 1014.5 |
| 20260905232921 | 68 | 158 | 1.0 | 1.0 | 0.00 | 0.52 | 0.52 | 97 | 1014.0 |
| 20260905232417 | 67 | 166 | 1.0 | 2.0 | 0.05 | 0.52 | 0.52 | 97 | 1014.4 |
| 20260905231912 | 67 | 183 | 3.0 | 4.0 | 0.31 | 0.52 | 0.52 | 97 | 1014.5 |
| 20260905231409 | 66 | 138 | 3.0 | 4.0 | 1.16 | 0.51 | 0.51 | 97 | 1013.9 |
| 20260905230905 | 66 | 88 | 5.0 | 7.0 | 1.68 | 0.49 | 0.49 | 96 | 1013.9 |
| 20260905230403 | 71 | 306 | 7.0 | 10.0 | 0.90 | 0.30 | 0.30 | 80 | 1013.9 |
| 20260905225901 | 71 | 157 | 3.0 | 4.0 | 0.47 | 0.21 | 0.21 | 78 | 1013.9 |
| 20260905225356 | 72 | 197 | 2.0 | 3.0 | 0.47 | 0.17 | 0.17 | 72 | 1013.6 |
| 20260905224852 | 75 | 168 | 2.0 | 2.0 | 0.35 | 0.13 | 0.13 | 68 | 1013.4 |
| 20260905224347 | 79 | 156 | 1.0 | 1.0 | 0.12 | 0.09 | 0.09 | 57 | 1013.5 |
| 20260905223842 | 81 | 156 | 2.0 | 3.0 | 0.00 | 0.07 | 0.07 | 54 | 1012.8 |
| 20260905223340 | 82 | 181 | 2.0 | 3.0 | 0.00 | 0.07 | 0.07 | 51 | 1013.1 |
| 20260905222840 | 82 | 155 | 0.0 | 0.0 | 0.00 | 0.07 | 0.07 | 49 | 1013.3 |
| 20260905222338 | 83 | 165 | 4.0 | 9.0 | 0.00 | 0.07 | 0.07 | 45 | 1013.4 |
| 20260905221835 | 83 | 151 | 2.0 | 2.0 | 0.00 | 0.07 | 0.07 | 49 | 1013.5 |
| 20260905221331 | 83 | 203 | 7.0 | 10.0 | 0.07 | 0.07 | 0.07 | 49 | 1013.6 |
| 20260905220827 | 82 | 169 | 4.0 | 6.0 | 0.07 | 0.07 | 0.07 | 53 | 1013.5 |
| 20260905220323 | 82 | 232 | 9.0 | 13.0 | 0.00 | 0.06 | 0.06 | 51 | 1013.5 |
| 20260905215822 | 84 | 189 | 5.0 | 6.0 | 0.00 | 0.06 | 0.06 | 53 | 1013.5 |
| 20260905215318 | 82 | 194 | 2.0 | 2.0 | 0.00 | 0.06 | 0.06 | 64 | 1013.7 |
| 20260905214814 | 81 | 201 | 4.0 | 4.0 | 0.00 | 0.06 | 0.06 | 71 | 1013.5 |
| 20260905214309 | 80 | 193 | 5.0 | 6.0 | 0.00 | 0.06 | 0.06 | 73 | 1013.4 |
| 20260905213804 | 81 | 174 | 0.0 | 0.0 | 0.05 | 0.06 | 0.06 | 77 | 1013.5 |
| 20260905213300 | 82 | 176 | 1.0 | 1.0 | 0.35 | 0.06 | 0.06 | 74 | 1013.7 |
| 20260905212755 | 84 | 182 | 2.0 | 2.0 | 0.31 | 0.05 | 0.05 | 65 | 1013.6 |
| 20260905212254 | 92 | 202 | 7.0 | 9.0 | 0.00 | 0.00 | 0.00 | 39 | 1014.1 |
| 20260905211749 | 93 | 198 | 2.0 | 3.0 | 0.00 | 0.00 | 0.00 | 33 | 1013.7 |
| 20260905211244 | 94 | 166 | 0.0 | 1.0 | 0.00 | 0.00 | 0.00 | 32 | 1013.7 |
| 20260905210741 | 95 | 165 | 2.0 | 3.0 | 0.00 | 0.00 | 0.00 | 31 | 1014.1 |
| 20260905210240 | 96 | 165 | 1.0 | 1.0 | 0.00 | 0.00 | 0.00 | 31 | 1013.8 |